Portada
METAR-TAF:

METAR-TAF

Aeroports :

Coober Pedy, Austràlia

latitud: 29-02-24S, longitud: 134-43-18E, altitud: 226 m

Observació

L'informe es va fer fa 16 minuts, a les 09:33 UTC
Vent 6 kt del Est/Nord-Est
Temperatura 20°C
Humitat 94%
Pressió 1008 hPa
Visibilitat 10 km o més
Cel ennuvolat a una alçada de 400 ft

METAR: YCBP 020933Z AUTO 07006KT 9999 // BKN004 20/19 Q1008

Hora: 20:19 (09:49 UTC)


TAF: manca

Observacions i pronòstics meteorològics de més de 4000 aeroports (METAR i TAF).

Les estacions disponibles són els punts grocs i vermells al mapa.

Posi el ratolí al punt desitjat per veure el nom de l'estació.

Feu clic per veure les observacions i els pronòstics meteorològics.

Per canviar el mapa: feu clic els botons verds amb una creu de color negre per apropar; al botó verd amb un guió per allunyar la imatge; o en les fletxes verdes per a mapes adjacents.


METAR-TAF: